Погода в Владимире

Погода в Владимире : погода сейчас, прогноз погоды и архив. Всё, что Вы хотите узнать о погоде в Владимире!

Хотите узнать прогноз погоды в Владимире? Тогда Вам сюда: Погода в Владимире

Поиск расширенной информации на нашем сайте:

Другие новости

Новости СМИ2

Главная страница сайта

Новости сайта

03.07.2017

Напоминаем, что на нашем специализированном сайте Метеоцентр.Азия вы можете получить высокодетализированные автоматические прогнозы погоды по пунктам России, СНГ и мира в авиационном формате (включающие направление и скорость ветра, видимость, явления погоды, количество и форму облачности, нижнюю и верхнюю границу облачности).

Рекомендуем: Быстрый ремонт компьютеров во фряново у нас всегда отвечает стандартам.

Погода в Владимире - сегодня

Время (UTC), дата Ветер
(°,м/с) 
Видим.   Явления Облачность Т
(°С)
Тd
(°С)
f(%) Тe
(°С)
Pmin
(гПа)
dP
(гПа)
Po
(мм)
O2
(г/м3)
Тmin Tmax R s Состояние
почвы
03 17.09.17 240 (ЮЗ) 4000 м  дымка  4/0 средняя 
[Ac trans]
+7.7 +6.5 92 +7  1022.3  0.9  751  293  +7.3        влажная 
06 17.09.17 240 (ЮЗ) 10 км    н/о 
+12.4 +8.6 78 +13  1022.8  0.8  752  288           
09 17.09.17 230 (ЮЗ) 10 км    8/3 600 м средняя 
[Sc|Ac und]
+16.8 +8.4 58 +17  1022.4  0.1  752  284           
12 17.09.17 230 (ЮЗ) 10 км    9/6 600 м кучево-дожд., средняя 
[Cb cap|Ac und]
+17.7 +8.2 54 +18  1021.7  -0.6  751  283           
18 17.09.17 тихо ()   10 км    10/6 600 м средняя 
[Sc|Ac As]
+12.9 +11.3 90 +16  1020.2  -0.6  750  286           
21 17.09.17 180 (Ю) 4000 м  слаб. ливневой дождь  10/8 600 м кучево-дожд., средняя 
[Cb cap|Ac As]
+12.4 +11.3 93 +17  1019.1  -1  749  287           
03 18.09.17 170 (Ю) 10 км    10/8 600 м кучево-дожд., средняя 
[Cb cap|Ac As]
+13 +10.2 83 +15  1014.7  -2  746  285  +12.2      влажная 
06 18.09.17 170 (Ю) 10 км    9/0 средняя, верхняя 
[Ac trans|Ci sp]
+15.4 +10.5 73 +18  1012.8  -1.7  744  282           
09 18.09.17 170 (Ю) 10 км    10/4 600 м средняя 
[Sc|Ac und]
+17.9 +10.5 62 +20  1010.4  -2.1  743  279           
12 18.09.17 170 (Ю) 10 км    8/4 600 м средняя 
[Sc|Ac und]
+22.4 +12.1 52 +27  1007.2  -2.9  741  273           
18 18.09.17 180 (Ю) 10 км  гроза, ливневой дождь  10/8 600 м кучево-дожд., средняя 
[Cb calv|Ac und]
+19.5 +14.9 75 +29  1004.4  -0.9  739  275           
21 18.09.17 210 (ЮЗ) 10 км  {гроза}  8/5 600 м средняя 
[Sc diur, vesp|Ac und]
+18.5 +13.6 73 +26  1004.8  0.3  739  276           
00 19.09.17 210 (ЮЗ) 10 км  {гроза}  8/0 средняя, верхняя 
[Ac und|Ci fib]
+15 +10.7 75 +17  1005.7  0.7  739  280           
03 19.09.17 200 (Ю) 10 км    10/0 средняя, верхняя 
[Ac und|Ci fib]
+13.1 +7.1 67 +13  1005.2  -0.6  739  283  +13.1    0.0    влажная 
06 19.09.17 220 (ЮЗ) 8-13{13}  10 км    3/0 средняя 
[Ac trans]
+14 +6.2 59 +13  1005.9  0.8  739  282  +12.7         
09 19.09.17 230 (ЮЗ) 8-12{16}  10 км    9/9 600 м 
[Sc]
+14.4 +6.1 57 +13  1008.3  2.4  741  283           
12 19.09.17 230 (ЮЗ) 7-11{15}  10 км    10/8 600 м средняя 
[Sc|Ac und]
+13.5 +6.7 63 +12  1011.3  2.8  743  284           
15 19.09.17 230 (ЮЗ) 6{13}  10 км    10/8 600 м средняя 
[Sc|Ac As]
+13 +6.8 66 +12  1014  2.7  745  285    +15.1       
18 19.09.17 240 (ЮЗ) 4{11}  10 км    6/0 средняя 
[Ac trans]
+11.1 +5.5 68 +10  1016.3  2.1  747  288           
21 19.09.17 230 (ЮЗ) 10 км    4/0 средняя 
[Ac trans]
+8.4 +5.3 81 +7  1018.2  1.6  748  292           
00 20.09.17 230 (ЮЗ) 4000 м  дымка  ясно 
+7.2 +5.3 88 +6  1019.8  1.5  749  293           
03 20.09.17 250 (З) 4000 м  дымка  6/0 средняя, верхняя 
[Ac trans|Ci fib]
+6.5 +5.3 92 +6  1021.3  1.4  750  294  +5.8        влажная 
06 20.09.17 250 (З) 10 км    3/0 средняя, верхняя 
[Ac trans|Ci fib]
+10.6 +7.6 82 +11  1023  752  290           
09 20.09.17 240 (ЮЗ) 10 км    6/3 600 м верхняя 
[Cu hum|Ci fib]
+15.6 +7.7 59 +16  1023.3  0.6  752  285           
12 20.09.17 280 (З) 10 км    8/5 600 м верхняя 
[Cu hum|Ci fib]
+16.4 +7.4 55 +17  1023.5  0.3  752  285           
Время (UTC), дата Ветер
(°,м/с) 
Видим.   Явления Облачность Т
(°С)
Тd
(°С)
f(%) Тe
(°С)
Pmin
(гПа)
dP
(гПа)
Po
(мм)
O2
(г/м3)
Тmin Tmax R s Состояние
почвы

Для получения пояснительной информации подведите курсор к названию столбца.

ПОГОДА в Владимире - архив

Всё, что Вы хотите узнать о погоде в Владимире - удобно и подробно!

Выберите нужную дату (начиная с 1 января 2015* года) и нажмите кнопку "Найти".
Будут отображены архивные сводки погоды по пункту Владимир, начиная с указанной даты.


Отображать данные в формате CSV (для использования в таблицах Excel)


Внимание! Наш архив погоды предназначен исключительно для личного некоммерческого использования в познавательных целях. Если Вам необходимы официальные справки о состоянии погоды (для производственных, юридических, коммерческих и т.п. целей), обращайтесь в органы Росгидромета.

*Примечание: данная дата относится к архиву по метеостанциям СССР (Россия, СНГ, Балтия).
Архив по метеостанциям Зарубежной Европы и Азии (кроме Китая) хранится 10 дней, по другим регионам земного шара (Китай, Африка, Америка, Австралия, Океания) - 1 день.

Владимир - район местоположения метеостанции


Название, широта, долгота, высота метеостанции:
Владимир 56.1°ш. 40.3°д. 172 м над ур. моря [Российская Федерация]

Дополнительная информация

В oтличие oт бoльшинства пoгoдных сайтoв мы публикуем пoдрoбную метеoинфoрмацию в детальнoм прoфессиoнальнoм фoрмате.

Характеристики температуры и влажнoсти вoздуха измеряются на высoте 2 м в тени вдали oт зданий и деревьев.
Скoрoсть ветра измеряется на высoте 10 м (на урoвне рoста челoвека скoрoсть ветра ниже в 1.5-2 раза). Если метеoстанция нахoдится в гoрoде или в лесу, тo скoрoсть ветра занижена на 2-4 м/с пo сравнению с oткрытым местoм. Скoрoсть ветра над акватoриями крупных рек и oзёр, а также на вершинах хoлмoв на 2-5 м/с выше, чем в oбычных услoвиях.
Атмoсфернoе давление в разных тoчках местнoсти мoжет значительнo oтличаться oт давления на метеoстанции, в зависимoсти oт услoвий рельефа (при пoдъёме на 10 м давление пoнижается примернo на 1 мм рт.ст.).